Regional Weather Roundup
Issued by NWS Sioux Falls, SD

Home | Current Version | Previous Version | Graphics & Text | Print | Product List | Glossary On
Versions: 1 2 3 4 5 6 7 8 9 10 11 12 13 14 15 16 17 18 19 20 21 22 23 24 25 26 27 28 29 30 31 32 33 34 35 36 37 38 39 40 41 42 43 44 45 46 47 48 49 50
000
ASUS43 KFSD 131502
RWRFSD

WEATHER ROUNDUP FOR SE SOUTH DAKOTA/SW MINNESOTA/NW IOWA
NATIONAL WEATHER SERVICE SIOUX FALLS SD
1000 AM CDT SUN JUL 13 2014

NOTE: "FAIR" INDICATES FEW OR NO CLOUDS BELOW 12,000 FEET WITH NO
SIGNIFICANT WEATHER AND OR OBSTRUCTIONS TO VISIBILITY.


SDZ038>040-050-052>070-131600-
SOUTHEAST SOUTH DAKOTA

CITY           SKY/WX    TMP DP  RH WIND       PRES   REMARKS
CHAMBERLAIN    SUNNY     74  65  73 W7        30.10S
HURON          SUNNY     73  56  54 CALM      30.07S
MADISON        FAIR      70  66  88 N5        30.08S
MITCHELL       SUNNY     75  63  66 NW7       30.08R
SIOUX FALLS    MOSUNNY   75  64  68 NW6       30.05F
WINNER         FAIR      76  65  68 W7        30.12S
YANKTON        SUNNY     75  66  73 NW5       30.07F
$$

MNZ071-072-080-081-089-090-097-098-131600-
SOUTHWEST MINNESOTA

CITY           SKY/WX    TMP DP  RH WIND       PRES   REMARKS
FAIRMONT       SUNNY     73  59  60 N8        30.02S
JACKSON        SUNNY     72  55  56 NW8       30.05R
LUVERNE        SUNNY     72  64  78 W5        30.06S
MARSHALL       SUNNY     70  55  60 NW6       30.03S
MONTEVIDEO     SUNNY     72  57  60 W7        30.03F
PIPESTONE      SUNNY     72  52  49 N6        30.06S
REDWOOD FALLS  SUNNY     69  57  65 NW12      30.01F
TRACY          SUNNY     70  57  63 NW6       30.04S
WINDOM         SUNNY     73  55  53 W7        30.04S
WORTHINGTON    SUNNY     72  61  68 NW9       30.06S
$$

IAZ001>003-012>014-020>022-031-032-NEZ013-014-SDZ071-131600-
NORTHWEST IOWA

CITY           SKY/WX    TMP DP  RH WIND       PRES   REMARKS
CHEROKEE       MOSUNNY   75  71  87 NW8       30.05S
DENISON        MOSUNNY   72  72 100 SW5       30.04F
ESTHERVILLE    SUNNY     72  60  66 NW8       30.03S
LE MARS        MOSUNNY   73  68  83 NW6       30.06S
ORANGE CITY    SUNNY     75  66  73 NW6       30.05F
SIOUX CITY     SUNNY     78  69  73 NW7       30.05F
SPENCER        MOSUNNY   73  65  75 W6        30.05S
STORM LAKE     SUNNY     75  72  88 W14       30.06S
$$

ABBREVIATIONS USED IN REMARKS
   TC - TEMPERATURE IN CELSIUS
  WCI - WIND CHILL INDEX
   HX - HEAT INDEX
  VSB - VISIBILITY




USA.gov is the U.S. government's official web portal to all federal, state and local government web resources and services.